Weather in Shalgovaara

Russia / Republic of Karelia     63°30′39″N   33°15′09″E
temp.,
°C
wind,
m/s
gust,
m/s
humid.,
%
clouds,
%
prec.,
mm/h
press.,
hPa
HPBL,
m
3 august, tue
tue300:00+15e2481100 0.0 1000101
03:00+13ne3797100 3.3 997271
06:00+13ene61497100 7.7 991864
09:00+14ese41099100 16.1 987638
12:00+16ese2799100 5.8 984436
15:00+14sw61296100 8.4 986885
18:00+13wsw71294100 0.3 9901094
21:00+12sw61194100 0.6 993736
4 august, wed
wed400:00+10wsw61193100 0.4 995910
03:00+9wsw61293100 1.2 997984
06:00+9wsw71491100 0.5 9981511
09:00+8wsw71491100 1.3 10011517
12:00+8w71492100 1.6 10041235
15:00+7w71393100 3.1 10081186
18:00+9w51289100 0.9 10111202
21:00+10wsw41187100 0.9 1012549
5 august, thu
thu500:00+9wsw31087100 0.0 1013282
03:00+8wsw278997 0.0 1015141
06:00+9w128499 0.0 101663
09:00+14w235895 0.0 1017414
12:00+18w014180 0.0 10171883
15:00+16se224996 0.0 1018773
18:00+16sse1252100 0.0 1018150
21:00+13sse2367100 0.0 101963
6 august, fri
fri600:00+12sse1170100 0.0 101916
03:00+12se1171100 0.0 102016
06:00+12se1172100 0.0 102121
09:00+16se225891 0.0 1021345
12:00+18ese224721 0.0 10211111
15:00+19se333850 0.0 10211896
18:00+18ese234010 0.0 10211392
21:00+13ese2365100 0.0 102265
7 august, sat
sat700:00+12ese1171100 0.0 102316
03:00+10e11835 0.0 102410
06:00+11ene11785 0.0 102539
09:00+16ese35513 0.0 1025573
12:00+18ese46373 0.0 10251689
15:00+20e46352 0.0 10241959
18:00+19e47402 0.0 10241937
21:00+14ene312610 0.0 1024364